Clinton-Sherman, OK

1:18 PM CDT on May 27, 2017 (GMT -0500)
Clinton-Sherman

Weather History for KCSM - October, 2011

Change the Weather History Date:

Thursday, October 27, 2011

  Actual Average Record
Temperature  
Mean Temperature 44 °F -  
Max Temperature 46 °F 65 °F 82 °F (2014)
Min Temperature 41 °F 45 °F 21 °F (1997)
Degree Days  
Heating Degree Days 22    
Moisture  
Dew Point 39 °F    
Average Humidity 84    
Maximum Humidity 96    
Minimum Humidity 61    
Precipitation  
Precipitation 0.44 in - - ()
Sea Level Pressure  
Sea Level Pressure 30.16 in    
Wind  
Wind Speed 18 mph (North)    
Max Wind Speed 28 mph    
Max Gust Speed 37 mph    
Visibility 9 miles    
Events Rain    
Averages and records for this station are not official NWS values.
T = Trace of Precipitation, MM = Missing Value Source: NWS Daily Summary

Daily Weather History Graph

Daily Weather History Graph

Search for Another Location

Airport or City:

Trip Planner

Search our weather history database for the weather conditions in past years. The results will help you decide how hot, cold, wet, or windy it might be!

Date:

Astronomy

Oct. 27, 2011 Rise Set
Actual Time 7:53 AM CDT 6:47 PM CDT
Civil Twilight 7:27 AM CDT 7:13 PM CDT
Nautical Twilight 6:57 AM CDT 7:43 PM CDT
Astronomical Twilight 6:27 AM CDT 8:12 PM CDT
Moon 8:54 AM CDT 7:23 PM CDT
Length of Visible Light 11h 46m
Length of Day
10h 54m
New Moon, 1% of the Moon is Illuminated
Oct 27
New Moon
Nov 2
First Quarter
Nov 10
Full
Nov 18
Last Quarter
Nov 25
New

Hourly Weather History & Observations

Time (CDT) Temp. Windchill Dew Point Humidity Pressure Visibility Wind Dir Wind Speed Gust Speed Precip Events Conditions
12:53 AM 46.0 °F 37.2 °F 34.0 °F 63% 30.09 in 10.0 mi North 26.5 mph 35.7 mph N/A   Overcast
1:53 AM 46.0 °F 37.0 °F 33.1 °F 61% 30.10 in 10.0 mi North 27.6 mph 36.8 mph 0.00 in   Overcast
3:53 AM 41.0 °F 33.1 °F 39.0 °F 93% 30.11 in 4.0 mi North 15.0 mph 24.2 mph 0.16 in Rain Heavy Rain
4:53 AM 41.0 °F 32.2 °F 39.0 °F 93% 30.08 in 10.0 mi North 18.4 mph 27.6 mph 0.05 in Rain Light Rain
5:00 AM 42.8 °F 34.3 °F 39.2 °F 87% 30.10 in 10.0 mi North 19.6 mph - 0.00 in Rain Light Rain
5:09 AM 42.8 °F 33.8 °F 39.2 °F 87% 30.09 in 10.0 mi NNE 21.9 mph - 0.00 in   Overcast
5:53 AM 41.0 °F 32.2 °F 39.0 °F 93% 30.11 in 5.0 mi North 18.4 mph - 0.06 in Rain Rain
6:53 AM 41.0 °F 32.5 °F 39.0 °F 93% 30.11 in 8.0 mi North 17.3 mph - 0.06 in Rain Light Rain
7:43 AM 41.0 °F 33.5 °F 39.2 °F 93% 30.12 in 7.0 mi North 13.8 mph - 0.01 in Rain Light Rain
7:53 AM 41.0 °F 32.8 °F 39.9 °F 96% 30.14 in 10.0 mi North 16.1 mph - 0.01 in Rain Light Rain
8:23 AM 41.0 °F 32.5 °F 39.2 °F 93% 30.14 in 5.0 mi North 17.3 mph - 0.04 in Rain Rain
8:53 AM 41.0 °F 33.1 °F 39.0 °F 93% 30.15 in 8.0 mi North 15.0 mph - 0.05 in Rain Light Rain
9:42 AM 42.8 °F 35.4 °F 39.2 °F 87% 30.16 in 7.0 mi North 15.0 mph - 0.00 in Rain Light Rain
9:53 AM 42.1 °F 33.6 °F 39.0 °F 89% 30.16 in 8.0 mi North 18.4 mph 25.3 mph 0.00 in Rain Light Rain
10:30 AM 42.8 °F 35.1 °F 39.2 °F 87% 30.17 in 10.0 mi North 16.1 mph - 0.00 in Rain Light Rain
10:53 AM 43.0 °F 36.0 °F 39.0 °F 86% 30.19 in 10.0 mi North 13.8 mph - 0.00 in Rain Light Rain
11:13 AM 42.8 °F 35.8 °F 39.2 °F 87% 30.18 in 4.0 mi North 13.8 mph - 0.01 in Rain Rain
11:53 AM 43.0 °F 35.4 °F 39.9 °F 89% 30.18 in 8.0 mi North 16.1 mph - 0.05 in Rain Light Rain
12:09 PM 44.6 °F 38.4 °F 39.2 °F 81% 30.18 in 10.0 mi North 12.7 mph - 0.00 in Rain Light Rain
12:29 PM 44.6 °F 37.4 °F 39.2 °F 81% 30.17 in 10.0 mi North 16.1 mph 23.0 mph 0.00 in Rain Light Rain
12:53 PM 44.1 °F 37.7 °F 39.9 °F 85% 30.18 in 10.0 mi North 12.7 mph - 0.00 in Rain Light Rain
1:02 PM 44.6 °F 38.1 °F 39.2 °F 81% 30.18 in 10.0 mi North 13.8 mph - 0.00 in Rain Light Rain
1:53 PM 45.0 °F 38.9 °F 39.9 °F 82% 30.17 in 10.0 mi North 12.7 mph - 0.00 in Rain Light Rain
2:02 PM 44.6 °F 38.4 °F 39.2 °F 81% 30.16 in 10.0 mi North 12.7 mph - 0.00 in Rain Light Rain
2:53 PM 46.0 °F 40.2 °F 39.0 °F 76% 30.15 in 10.0 mi North 12.7 mph - 0.00 in Rain Light Rain
3:53 PM 46.9 °F - 37.9 °F 71% 30.16 in 10.0 mi North 12.7 mph - 0.00 in   Overcast
4:53 PM 45.0 °F 38.5 °F 37.9 °F 76% 30.17 in 10.0 mi NNW 13.8 mph - 0.00 in   Overcast
5:53 PM 45.0 °F 38.9 °F 37.9 °F 76% 30.17 in 10.0 mi North 12.7 mph - N/A   Overcast
6:53 PM 45.0 °F 41.2 °F 37.0 °F 74% 30.19 in 10.0 mi North 6.9 mph - 0.00 in   Overcast
7:53 PM 45.0 °F 42.6 °F 37.9 °F 76% 30.21 in 10.0 mi NNW 4.6 mph - N/A   Overcast
8:53 PM 44.1 °F 40.8 °F 39.0 °F 82% 30.22 in 10.0 mi WNW 5.8 mph - N/A   Clear
9:53 PM 44.1 °F 39.0 °F 37.9 °F 79% 30.22 in 10.0 mi WNW 9.2 mph - N/A   Clear
10:53 PM 42.1 °F 37.1 °F 37.9 °F 85% 30.22 in 10.0 mi WNW 8.1 mph - N/A   Clear
11:53 PM 41.0 °F 35.8 °F 37.0 °F 86% 30.23 in 10.0 mi NW 8.1 mph - N/A   Clear